Jamestown, NY

5:53 PM EDT on March 27, 2017 (GMT -0400)
Chautauqua County-Jamestown

Weather History for KJHW - November, 2012

Change the Weather History Date:

Friday, November 30, 2012

  Actual Average Record
Temperature  
Mean Temperature 32 °F -  
Max Temperature 37 °F 38 °F 64 °F (1998)
Min Temperature 28 °F 25 °F 3 °F (1976)
Degree Days  
Heating Degree Days 32    
Moisture  
Dew Point 22 °F    
Average Humidity 63    
Maximum Humidity 69    
Minimum Humidity 56    
Precipitation  
Precipitation 0.00 in - - ()
Sea Level Pressure  
Sea Level Pressure 30.24 in    
Wind  
Wind Speed 5 mph (SE)    
Max Wind Speed 9 mph    
Max Gust Speed -    
Visibility 10 miles    
Events      
Averages and records for this station are not official NWS values.
T = Trace of Precipitation, MM = Missing Value Source: NWS Daily Summary

Daily Weather History Graph

Daily Weather History Graph

Search for Another Location

Airport or City:

Trip Planner

Search our weather history database for the weather conditions in past years. The results will help you decide how hot, cold, wet, or windy it might be!

Date:

Astronomy

Nov. 30, 2012 Rise Set
Actual Time 7:25 AM EST 4:46 PM EST
Civil Twilight 6:54 AM EST 5:17 PM EST
Nautical Twilight 6:19 AM EST 5:52 PM EST
Astronomical Twilight 5:45 AM EST 6:25 PM EST
Moon 6:39 PM EST (11/30) 8:56 AM EST (11/30)
Length of Visible Light 10h 23m
Length of Day
9h 20m
Waning Gibbous, 96% of the Moon is Illuminated
Nov 30
Waning Gibbous
Dec 6
Last Quarter
Dec 13
New
Dec 20
First Quarter
Dec 28
Full

Hourly Weather History & Observations

Time (EST) Temp. Windchill Dew Point Humidity Pressure Visibility Wind Dir Wind Speed Gust Speed Precip Events Conditions
12:15 AM 30.2 °F 25.4 °F 17.6 °F 60% 30.26 in 10.0 mi South 4.6 mph - N/A   Clear
12:35 AM 30.2 °F 25.4 °F 17.6 °F 60% 30.26 in 10.0 mi South 4.6 mph - N/A   Clear
12:55 AM 30.2 °F 25.4 °F 19.4 °F 64% 30.25 in 10.0 mi South 4.6 mph - N/A   Clear
1:15 AM 30.2 °F 25.4 °F 17.6 °F 60% 30.24 in 10.0 mi South 4.6 mph - N/A   Clear
1:35 AM 30.2 °F 25.4 °F 19.4 °F 64% 30.24 in 10.0 mi South 4.6 mph - N/A   Clear
1:55 AM 30.2 °F 25.4 °F 19.4 °F 64% 30.25 in 10.0 mi South 4.6 mph - N/A   Clear
2:15 AM 30.2 °F 24.3 °F 19.4 °F 64% 30.25 in 10.0 mi South 5.8 mph - N/A   Clear
2:35 AM 30.2 °F 24.3 °F 19.4 °F 64% 30.25 in 10.0 mi SSW 5.8 mph - N/A   Clear
2:55 AM 32.0 °F 26.4 °F 19.4 °F 60% 30.25 in 10.0 mi SSW 5.8 mph - N/A   Clear
3:15 AM 30.2 °F 25.4 °F 19.4 °F 64% 30.25 in 10.0 mi South 4.6 mph - N/A   Clear
3:35 AM 28.4 °F 23.3 °F 19.4 °F 69% 30.24 in 10.0 mi South 4.6 mph - N/A   Clear
3:55 AM 28.4 °F 23.3 °F 19.4 °F 69% 30.25 in 10.0 mi South 4.6 mph - N/A   Clear
4:15 AM 28.4 °F 23.3 °F 17.6 °F 64% 30.25 in 10.0 mi South 4.6 mph - N/A   Clear
4:35 AM 30.2 °F 25.4 °F 19.4 °F 64% 30.24 in 10.0 mi South 4.6 mph - N/A   Mostly Cloudy
4:55 AM 30.2 °F 24.3 °F 19.4 °F 64% 30.25 in 10.0 mi South 5.8 mph - N/A   Overcast
5:15 AM 30.2 °F 24.3 °F 19.4 °F 64% 30.24 in 10.0 mi South 5.8 mph - N/A   Overcast
5:35 AM 28.4 °F 22.2 °F 19.4 °F 69% 30.24 in 10.0 mi South 5.8 mph - N/A   Overcast
5:55 AM 30.2 °F 25.4 °F 19.4 °F 64% 30.25 in 10.0 mi South 4.6 mph - N/A   Overcast
6:15 AM 30.2 °F 25.4 °F 19.4 °F 64% 30.26 in 10.0 mi South 4.6 mph - N/A   Overcast
6:35 AM 30.2 °F - 19.4 °F 64% 30.26 in 10.0 mi Calm Calm - N/A   Overcast
6:55 AM 30.2 °F 26.7 °F 19.4 °F 64% 30.26 in 10.0 mi South 3.5 mph - N/A   Overcast
7:15 AM 30.2 °F - 21.2 °F 69% 30.27 in 10.0 mi Calm Calm - N/A   Overcast
7:35 AM 30.2 °F 26.7 °F 19.4 °F 64% 30.26 in 10.0 mi South 3.5 mph - N/A   Overcast
7:55 AM 30.2 °F 24.3 °F 21.2 °F 69% 30.26 in 10.0 mi South 5.8 mph - N/A   Overcast
8:15 AM 30.2 °F 24.3 °F 21.2 °F 69% 30.26 in 10.0 mi SSE 5.8 mph - N/A   Overcast
8:35 AM 30.2 °F - 21.2 °F 69% 30.27 in 10.0 mi Calm Calm - N/A   Overcast
8:55 AM 32.0 °F 28.7 °F 21.2 °F 64% 30.27 in 10.0 mi East 3.5 mph - N/A   Overcast
9:15 AM 32.0 °F 27.5 °F 21.2 °F 64% 30.27 in 10.0 mi East 4.6 mph - N/A   Overcast
9:35 AM 33.8 °F 28.6 °F 21.2 °F 60% 30.27 in 10.0 mi East 5.8 mph - N/A   Overcast
9:55 AM 33.8 °F 28.6 °F 21.2 °F 60% 30.27 in 10.0 mi East 5.8 mph - N/A   Overcast
10:15 AM 33.8 °F 27.7 °F 23.0 °F 65% 30.28 in 10.0 mi ESE 6.9 mph - N/A   Overcast
10:35 AM 33.8 °F 29.6 °F 21.2 °F 60% 30.28 in 10.0 mi ESE 4.6 mph - N/A   Overcast
10:55 AM 33.8 °F 28.6 °F 23.0 °F 65% 30.28 in 10.0 mi ESE 5.8 mph - N/A   Overcast
11:15 AM 33.8 °F 28.6 °F 21.2 °F 60% 30.27 in 10.0 mi ESE 5.8 mph - N/A   Overcast
11:35 AM 33.8 °F 27.7 °F 23.0 °F 65% 30.26 in 10.0 mi ENE 6.9 mph - N/A   Overcast
11:55 AM 35.6 °F 29.9 °F 23.0 °F 60% 30.25 in 10.0 mi East 6.9 mph - N/A   Overcast
12:15 PM 35.6 °F 29.9 °F 23.0 °F 60% 30.24 in 10.0 mi East 6.9 mph - N/A   Overcast
12:35 PM 35.6 °F 30.7 °F 24.8 °F 65% 30.23 in 10.0 mi East 5.8 mph - N/A   Overcast
12:55 PM 35.6 °F 30.7 °F 23.0 °F 60% 30.23 in 10.0 mi East 5.8 mph - N/A   Overcast
1:15 PM 35.6 °F 31.7 °F 23.0 °F 60% 30.23 in 10.0 mi ENE 4.6 mph - N/A   Overcast
1:35 PM 35.6 °F 29.9 °F 23.0 °F 60% 30.22 in 10.0 mi East 6.9 mph - N/A   Overcast
1:55 PM 35.6 °F 31.7 °F 24.8 °F 65% 30.23 in 10.0 mi ENE 4.6 mph - N/A   Overcast
2:15 PM 35.6 °F 29.9 °F 23.0 °F 60% 30.22 in 10.0 mi ENE 6.9 mph - N/A   Overcast
2:35 PM 37.4 °F 31.4 °F 24.8 °F 60% 30.20 in 10.0 mi East 8.1 mph - N/A   Overcast
2:55 PM 37.4 °F 30.8 °F 24.8 °F 60% 30.19 in 10.0 mi SE 9.2 mph - N/A   Mostly Cloudy
3:15 PM 37.4 °F 32.1 °F 24.8 °F 60% 30.19 in 10.0 mi SE 6.9 mph - N/A   Overcast
3:35 PM 37.4 °F 32.8 °F 24.8 °F 60% 30.19 in 10.0 mi East 5.8 mph - N/A   Overcast
3:55 PM 37.4 °F 32.1 °F 24.8 °F 60% 30.19 in 10.0 mi East 6.9 mph - N/A   Overcast
4:15 PM 37.4 °F 32.1 °F 24.8 °F 60% 30.19 in 10.0 mi SE 6.9 mph - N/A   Mostly Cloudy
4:35 PM 37.4 °F 32.1 °F 24.8 °F 60% 30.19 in 10.0 mi ESE 6.9 mph - N/A   Mostly Cloudy
4:55 PM 37.4 °F 32.1 °F 23.0 °F 56% 30.18 in 10.0 mi East 6.9 mph - N/A   Overcast
5:15 PM 37.4 °F 34.9 °F 24.8 °F 60% 30.20 in 10.0 mi NE 3.5 mph - N/A   Scattered Clouds
5:35 PM 35.6 °F 30.7 °F 24.8 °F 65% 30.20 in 10.0 mi NE 5.8 mph - N/A   Partly Cloudy
5:55 PM 35.6 °F 29.9 °F 24.8 °F 65% 30.21 in 10.0 mi NE 6.9 mph - N/A   Clear
6:15 PM 35.6 °F 29.9 °F 24.8 °F 65% 30.21 in 10.0 mi ENE 6.9 mph - N/A   Clear
6:35 PM 37.4 °F - 24.8 °F 60% 30.22 in 10.0 mi Calm Calm - N/A   Partly Cloudy
6:55 PM 37.4 °F 32.1 °F 24.8 °F 60% 30.23 in 10.0 mi NE 6.9 mph - N/A   Scattered Clouds
7:15 PM 35.6 °F 29.9 °F 24.8 °F 65% 30.23 in 10.0 mi ENE 6.9 mph - N/A   Scattered Clouds
7:35 PM 37.4 °F 32.1 °F 24.8 °F 60% 30.24 in 10.0 mi ENE 6.9 mph - N/A   Overcast
8:15 PM 35.6 °F - 24.8 °F 65% 30.24 in 10.0 mi Calm Calm - N/A   Mostly Cloudy
8:35 PM 35.6 °F 32.8 °F 24.8 °F 65% 30.24 in 10.0 mi ENE 3.5 mph - N/A   Mostly Cloudy
8:55 PM 35.6 °F - 24.8 °F 65% 30.24 in 10.0 mi Calm Calm - N/A   Partly Cloudy
9:15 PM 35.6 °F 32.8 °F 24.8 °F 65% 30.25 in 10.0 mi ESE 3.5 mph - N/A   Partly Cloudy
9:35 PM 35.6 °F 31.7 °F 24.8 °F 65% 30.25 in 10.0 mi ESE 4.6 mph - N/A   Clear
9:55 PM 35.6 °F 32.8 °F 24.8 °F 65% 30.25 in 10.0 mi SE 3.5 mph - N/A   Mostly Cloudy
10:15 PM 35.6 °F 32.8 °F 24.8 °F 65% 30.25 in 10.0 mi SE 3.5 mph - N/A   Overcast
10:35 PM 35.6 °F 31.7 °F 24.8 °F 65% 30.24 in 10.0 mi ESE 4.6 mph - N/A   Overcast
10:55 PM 37.4 °F 32.8 °F 24.8 °F 60% 30.24 in 10.0 mi SE 5.8 mph - N/A   Overcast
11:15 PM 37.4 °F 33.8 °F 24.8 °F 60% 30.24 in 10.0 mi SE 4.6 mph - N/A   Overcast
11:35 PM 37.4 °F 33.8 °F 24.8 °F 60% 30.23 in 10.0 mi SSE 4.6 mph - N/A   Overcast